[[{"header":{"parameterUnit":"m.s-1","parameterCategory":1,"la1":30.2992,"la2":30.254,"lo1":-89.0895,"lo2":-89.0443,"dy":0.0025,"dx":0.0025,"nx":19,"ny":19,"refTime":"2026-04-30T09:00:00:Z","depth":0,"parameterNumber":2,"parameterNumberName":"U-component_of_WINDS"},"data":[0,0,0,-3.8988,-3.8996,-3.9351,-3.9352,-3.9824,-3.9829,0,0,0,0,0,0,0,0,0,0,0,-3.8892,-3.8895,-3.8988,-3.8997,-3.9351,-3.9353,-3.9823,-3.9829,0,0,0,0,0,0,0,0,0,0,0,-3.889,-3.8894,-3.8899,-3.8998,-3.9351,-3.9353,-3.9822,-3.9549,0,0,0,0,0,0,0,0,0,0,-3.9201,-3.9121,-3.8894,-3.8899,-3.9,-3.935,-3.9353,-3.9535,-3.9566,-3.9671,0,-3.9764,0,-3.9804,-3.9861,-3.9863,0,0,0,-3.8991,-3.9095,-3.9183,-3.89,-3.9004,-3.935,-3.919,-3.9552,-3.9587,-3.9711,-3.977,-3.9788,-3.9811,-3.9864,-3.9867,-4.0486,-4.0489,0,0,-3.8971,-3.8961,-3.9159,-3.9205,-3.9149,-3.9178,-3.9201,-3.9573,-3.9638,-3.9772,-3.9798,-3.9819,-3.9868,-3.9871,-4.0483,-4.0486,0,0,0,-3.8919,-3.8948,-3.9026,-3.9186,-3.9249,-3.9189,-3.9214,-3.9621,-3.9647,-3.9803,-3.9825,-3.987,-3.9876,-4.0479,-4.0484,-4.0633,0,0,0,-3.8907,-3.8917,-3.9017,-3.9015,-3.9242,-3.9439,-3.9255,-3.9622,-3.9664,-3.9822,-3.987,-3.9881,-4.0476,-4.0482,-4.0621,-4.0706,0,0,0,-3.8866,-3.8912,-3.8966,-3.9014,-3.9165,-3.9433,-3.9481,-3.9631,-3.9678,-3.9863,-3.9882,-4.0473,-4.0481,-4.0611,-4.0689,-4.0869,0,0,0,-3.882,-3.9093,-3.8968,-3.9282,-3.9162,-3.9521,-3.9478,-3.9746,-3.9922,-3.9873,-4.0476,-4.0484,-4.0608,-4.0679,-4.0858,-4.1021,-4.1087,0,0,-3.9159,-3.9133,-3.9319,-3.9218,-3.9596,-3.9467,-3.9868,-4.004,-4.0067,-4.0345,-4.036,-4.0625,-4.0688,-4.0867,-4.1452,-4.1504,0,0,0,-3.9423,-3.9557,-3.9659,-3.9826,-3.9962,-4.0087,-4.0198,-4.0262,-4.0498,-4.0207,-4.0736,-4.0774,-4.088,-4.0959,-4.1003,-4.1096,-4.0518,-4.0517,-4.0517,-3.9892,-3.9911,-4.0219,-4.0282,-4.0444,-4.0555,-4.069,-4.0795,-4.0767,-4.0891,-4.0976,-4.1329,-4.142,-4.1454,-4.155,-4.106,-4.106,-4.1061,-4.1061,-4.0394,-4.0588,-4.0543,-4.0827,-4.0846,-4.1085,-4.1203,-4.1175,-4.1403,-4.1266,-4.136,-4.1214,-4.151,-4.1596,-4.1073,-4.1071,-4.1069,-4.1068,-4.1067,-4.0708,-4.0804,-4.0875,-4.1119,-4.1305,-4.1357,-4.1578,-4.1586,-4.1596,-4.1688,-4.1781,-4.1779,-4.1781,-4.1731,-4.1732,-4.1733,-4.1734,-4.1735,-4.1736,-4.1006,-4.1081,-4.1266,-4.1433,-4.1542,-4.1686,-4.18,-4.1908,-4.2031,-4.202,-4.2021,-4.1984,-4.1534,-4.1423,-4.1755,-4.1752,-4.1749,-4.1748,-4.1746,-4.1517,-4.1403,-4.1687,-4.1797,-4.1994,-4.2181,-4.2186,-4.2406,-4.2497,-4.2606,-4.2547,-4.2212,-4.2187,-4.2152,-4.2062,-4.2539,-4.2539,-4.2539,-4.2539,-4.1785,-4.1771,-4.2066,-4.224,-4.2411,-4.2446,-4.277,-4.2861,-4.2938,-4.2996,-4.2927,-4.2805,-4.2768,-4.2766,-4.2718,-4.2633,-4.3246,-4.3247,-4.3247,-4.2103,-4.2106,-4.2381,-4.2451,-4.2607,-4.2741,-4.3047,-4.3252,-4.3314,-4.3276,-4.3043,-4.3013,-4.2816,-4.275,-4.2712,-4.2637,-4.2482,0,0]},{"header":{"parameterUnit":"m.s-1","parameterCategory":1,"la1":30.2992,"la2":30.254,"lo1":-89.0895,"lo2":-89.0443,"dy":0.0025,"dx":0.0025,"nx":19,"ny":19,"refTime":"2026-04-30T09:00:00:Z","depth":0,"parameterNumber":3,"parameterNumberName":"V-component_of_WINDS"},"data":[0,0,0,-4.5487,-4.5482,-4.5203,-4.5202,-4.4874,-4.4871,0,0,0,0,0,0,0,0,0,0,0,-4.5596,-4.5595,-4.5488,-4.5482,-4.5203,-4.5202,-4.4874,-4.4871,0,0,0,0,0,0,0,0,0,0,0,-4.5597,-4.5595,-4.5594,-4.5481,-4.5204,-4.5202,-4.4875,-4.5073,0,0,0,0,0,0,0,0,0,0,-4.5338,-4.5467,-4.5596,-4.5594,-4.5479,-4.5204,-4.5201,-4.5082,-4.5061,-4.5015,0,-4.499,0,-4.4926,-4.4852,-4.4851,0,0,0,-4.546,-4.5485,-4.5386,-4.5594,-4.5477,-4.5204,-4.5323,-4.5069,-4.5046,-4.4987,-4.4985,-4.4971,-4.4921,-4.485,-4.4849,-4.4677,-4.4677,0,0,-4.5475,-4.5558,-4.5403,-4.5372,-4.5427,-4.5332,-4.5314,-4.5054,-4.5054,-4.4983,-4.4963,-4.4915,-4.4848,-4.4846,-4.4676,-4.4677,0,0,0,-4.5534,-4.557,-4.5477,-4.5387,-4.5335,-4.5324,-4.5304,-4.5065,-4.5028,-4.4959,-4.4911,-4.4846,-4.4843,-4.4676,-4.4677,-4.477,0,0,0,-4.5542,-4.5604,-4.5485,-4.5533,-4.5341,-4.5199,-4.5322,-4.5047,-4.5015,-4.4913,-4.4846,-4.484,-4.4676,-4.4676,-4.4767,-4.48,0,0,0,-4.5605,-4.5611,-4.5581,-4.5538,-4.5422,-4.5201,-4.5148,-4.5038,-4.4986,-4.4851,-4.4839,-4.4676,-4.4676,-4.4764,-4.4795,-4.4778,0,0,0,-4.5694,-4.5666,-4.5584,-4.5533,-4.5426,-4.5264,-4.5149,-4.5023,-4.4918,-4.4845,-4.4676,-4.4677,-4.4764,-4.4792,-4.4776,-4.4779,-4.4789,0,0,-4.5705,-4.5671,-4.5633,-4.5552,-4.5428,-4.53,-4.5184,-4.5006,-4.4913,-4.4758,-4.4753,-4.4768,-4.4794,-4.4777,-4.4817,-4.4826,0,0,0,-4.5665,-4.5639,-4.5588,-4.5495,-4.5362,-4.5248,-4.5079,-4.5011,-4.4878,-4.4854,-4.4755,-4.4768,-4.4754,-4.4752,-4.4759,-4.474,-4.468,-4.468,-4.468,-4.5798,-4.5685,-4.5614,-4.5467,-4.5377,-4.5203,-4.5117,-4.4995,-4.4904,-4.4883,-4.4836,-4.4875,-4.4875,-4.488,-4.4862,-4.4829,-4.4829,-4.483,-4.483,-4.5801,-4.5746,-4.5627,-4.5517,-4.5394,-4.5296,-4.5124,-4.5063,-4.4949,-4.4901,-4.4883,-4.4841,-4.4894,-4.4871,-4.4836,-4.4835,-4.4834,-4.4833,-4.4833,-4.5875,-4.5828,-4.5751,-4.5603,-4.5499,-4.5347,-4.5244,-4.5134,-4.5029,-4.5012,-4.4948,-4.4946,-4.4928,-4.499,-4.499,-4.499,-4.499,-4.499,-4.499,-4.5982,-4.5891,-4.5822,-4.5678,-4.5602,-4.5487,-4.5308,-4.5227,-4.5108,-4.5035,-4.5034,-4.4943,-4.4922,-4.4918,-4.4992,-4.4991,-4.4991,-4.4991,-4.4991,-4.6025,-4.5998,-4.5892,-4.5817,-4.5634,-4.5536,-4.5398,-4.5241,-4.5157,-4.5109,-4.502,-4.5024,-4.4978,-4.4971,-4.4967,-4.5048,-4.5048,-4.5048,-4.5048,-4.6087,-4.6054,-4.592,-4.5805,-4.568,-4.5544,-4.5418,-4.5276,-4.5123,-4.5062,-4.5034,-4.502,-4.5018,-4.4973,-4.4966,-4.496,-4.5038,-4.5038,-4.5038,-4.6105,-4.6055,-4.5975,-4.5833,-4.5681,-4.555,-4.5427,-4.5293,-4.5113,-4.5035,-4.5011,-4.5012,-4.4987,-4.4985,-4.4908,-4.49,-4.4887,0,0]}]]